Wind_Speed
2 1 3 3 3 4 5 5 7 6 5 2 2 2 2 3 3 1 5 7 7 4 5 4 4 3 3 4 6 6 5 5 5 5 5 5 5 5 4 3 3 2 1 1 2 3 4 5 7
2 3 2 3 5 8 7 6 7 5 1 1 5 4 5 6 4 6 9 7 5 4 5 7 7 7 6 6 7 7 6 6 5 5 5 5 5 4 4 4 4 3 2 1 1 3 4 6 7
2 4 6 4 5 3 4 6 4 4 3 5 6 6 6 8 8 11 9 9 8 5 5 7 10 11 10 11 12 11 10 9 9 7 5 5 4 4 3 3 4 3 3 3 4 4 6 7 7
1 3 4 6 5 4 3 6 6 8 11 6 8 7 8 9 9 9 8 8 10 11 11 12 12 12 13 13 13 13 12 12 12 11 9 6 4 4 4 4 4 4 4 5 5 6 7 9 9
3 5 7 8 3 6 6 6 9 11 7 7 7 11 10 10 8 10 13 12 13 9 10 10 13 15 16 15 15 16 16 15 14 13 13 10 8 5 6 7 6 5 6 7 8 7 8 10 10
4 5 9 8 9 6 6 8 9 8 13 8 10 15 17 12 11 11 14 15 10 10 10 11 12 14 15 15 15 16 16 16 15 15 14 14 13 12 10 10 9 7 8 8 9 9 10 11 12
5 4 7 5 3 6 8 7 7 7 9 11 14 14 17 18 19 18 18 14 14 15 13 12 12 14 14 15 16 17 17 17 16 17 16 16 15 15 15 13 14 12 11 10 10 10 11 12 14
5 4 4 5 6 8 9 9 12 14 13 15 17 11 17 17 19 19 20 22 22 22 17 14 14 14 15 15 16 16 17 17 17 18 17 17 17 17 18 16 15 15 15 13 11 10 11 12 13
3 4 7 9 6 11 12 12 15 15 13 13 16 16 16 18 21 22 24 25 24 19 18 17 15 16 16 18 18 18 18 19 19 18 17 17 18 19 20 19 18 17 17 16 14 12 13 14 14
4 6 7 10 10 10 13 16 17 20 19 14 15 18 20 20 21 21 21 21 21 24 23 19 15 14 17 20 20 20 21 20 19 18 18 20 22 22 22 22 21 20 19 17 16 14 15 14 14
2 3 7 9 12 13 14 17 20 21 19 16 15 19 22 21 19 21 24 27 28 31 30 26 19 17 18 18 19 21 22 23 23 22 23 23 23 23 23 24 22 20 21 20 18 17 17 17 16
4 5 9 9 12 15 15 17 18 20 19 17 20 20 25 28 26 28 31 31 33 37 35 33 29 23 22 21 20 21 25 26 26 27 27 24 23 22 22 23 23 22 23 24 21 20 19 17 14
10 8 9 12 15 17 18 16 16 8 12 15 17 21 23 24 26 32 34 36 36 34 32 34 33 31 25 27 26 23 22 26 27 29 28 26 24 23 22 21 23 22 23 21 21 20 19 18 16
12 13 12 13 6 10 14 11 17 12 16 17 16 20 20 23 27 27 27 27 29 28 29 31 36 39 35 34 30 30 28 26 24 28 31 30 26 25 22 22 22 23 23 24 22 21 19 20 18
13 16 11 3 8 13 16 22 16 20 17 14 20 19 23 25 27 31 30 27 27 32 33 31 31 35 43 43 42 36 30 29 26 28 31 28 26 27 25 19 19 22 25 23 23 22 22 22 20
13 12 7 11 15 15 21 29 18 25 20 26 24 18 20 27 30 30 32 32 34 35 38 37 33 34 38 41 45 44 37 33 27 26 28 31 30 25 26 25 21 21 24 20 22 23 23 20 20
8 11 17 20 12 22 20 31 35 32 32 29 25 24 26 31 33 35 38 40 38 38 39 42 41 39 41 42 42 41 40 39 31 27 29 35 31 29 30 29 22 20 21 23 23 23 23 20 15
14 23 26 27 24 29 35 43 34 22 22 25 23 26 29 36 42 48 48 41 37 40 41 43 46 45 34 41 45 45 45 41 42 41 38 30 31 36 33 29 28 27 24 22 23 22 23 22 23
18 24 30 33 33 38 38 40 37 30 28 30 30 32 37 42 44 43 40 39 40 44 45 44 41 37 32 29 35 43 43 43 42 39 37 32 31 33 34 30 29 30 27 25 24 25 24 24 21
24 29 35 38 29 32 39 45 41 34 25 24 27 32 34 30 36 42 44 44 45 44 46 45 38 32 27 24 23 29 38 40 43 41 38 35 33 35 31 31 36 36 33 30 26 28 25 22 22
25 28 33 32 35 32 38 43 26 32 41 29 28 28 31 34 38 43 45 45 42 43 45 42 36 32 25 27 26 25 26 33 38 39 38 38 39 38 34 31 33 41 39 33 25 25 21 21 24
26 19 21 26 30 26 23 25 41 28 18 23 23 23 29 33 38 43 45 45 43 39 34 31 29 25 24 25 25 26 25 25 32 36 36 36 39 37 34 32 33 34 37 30 26 27 23 22 22
15 20 21 26 30 33 20 16 10 18 8 15 19 24 30 36 40 43 45 45 41 33 26 22 20 21 20 23 23 24 28 26 24 31 32 34 35 35 33 28 27 30 24 27 26 27 25 25 22
13 20 26 24 21 8 2 13 7 16 24 25 26 26 29 32 35 36 35 36 30 30 27 20 17 15 19 21 21 23 27 29 23 24 27 30 32 32 31 29 27 30 27 27 26 24 25 22 20
18 33 14 7 3 9 16 25 26 36 27 24 25 28 30 32 32 30 29 34 33 34 33 22 21 17 24 22 22 21 27 29 24 21 23 28 32 31 29 28 29 27 23 33 30 27 25 22 19
22 13 5 6 3 15 29 11 13 18 21 25 27 30 30 31 32 26 29 31 27 18 19 26 17 25 24 27 24 20 26 28 23 20 19 26 30 27 25 23 24 18 29 32 27 27 24 20 19
22 12 14 21 28 14 16 24 15 20 20 22 23 26 26 25 27 16 19 21 24 25 22 18 23 22 23 26 27 21 24 27 24 19 14 14 19 22 20 21 22 27 25 32 31 27 23 20 18
15 20 16 14 5 7 10 16 12 14 18 17 26 27 26 25 26 28 28 27 24 21 22 18 24 27 24 28 26 24 23 25 21 18 13 10 11 13 12 12 16 18 23 35 32 26 22 19 15
22 18 11 14 11 6 6 8 16 26 25 24 17 19 22 23 28 30 30 29 23 20 20 22 22 24 24 27 24 21 21 25 20 17 10 8 9 11 11 14 20 22 18 30 30 25 21 17 17
11 7 13 11 14 22 21 30 27 21 24 19 23 21 24 25 27 28 25 25 19 21 20 21 24 24 24 24 19 23 23 23 18 18 12 12 13 13 12 14 18 18 22 30 31 24 20 18 17
Wind_Direction
151 152 93 142 150 123 135 117 165 203 225 284 74 259 11 358 335 308 316 304 299 292 255 240 237 249 293 322 329 333 330 328 330 324 310 296 282 264 256 243 247 267 303 355 16 356 344 346 355
174 183 143 155 85 117 109 139 192 189 220 300 114 339 311 274 281 304 318 314 308 277 221 236 245 255 265 276 287 299 304 294 311 333 342 331 317 299 285 268 258 252 259 268 307 318 323 328 340
196 196 190 165 125 96 140 169 194 234 251 232 229 251 274 278 284 303 317 319 328 299 271 267 269 270 282 285 284 286 290 289 292 302 322 339 343 327 313 301 304 295 288 290 297 309 316 314 326
151 197 199 150 117 137 174 191 215 248 251 247 224 237 242 262 277 291 307 300 312 313 299 279 271 268 268 273 276 279 280 280 282 286 292 300 318 323 325 302 293 297 297 292 294 297 303 308 321
198 199 184 150 138 176 221 241 256 258 233 219 234 245 235 265 269 282 295 303 311 295 282 266 259 258 262 268 274 277 278 278 278 280 283 288 292 297 302 311 312 306 294 285 281 288 295 302 311
230 205 171 135 139 195 236 279 294 272 228 230 240 254 261 262 262 273 285 297 289 312 298 289 275 265 263 263 264 266 269 270 272 275 277 280 284 293 291 295 297 301 299 297 291 290 292 299 301
233 220 192 193 185 235 247 263 271 278 261 244 253 256 268 268 280 281 284 293 281 300 296 287 283 278 275 269 267 267 268 269 269 270 270 271 275 280 284 287 292 294 291 295 299 293 291 293 296
247 235 207 210 216 239 236 263 282 288 283 253 261 267 270 280 278 283 289 296 300 302 297 283 279 283 280 277 273 270 269 268 269 268 267 269 272 273 276 277 278 282 283 286 287 288 288 287 292
255 241 219 217 224 249 270 280 290 297 292 273 252 256 265 261 271 278 289 297 299 300 300 294 288 279 278 279 281 278 276 274 270 267 269 270 269 267 269 272 274 274 276 281 283 285 286 285 287
260 248 238 238 244 252 271 283 282 290 292 281 273 267 262 265 273 282 285 290 287 294 291 281 283 284 277 274 272 275 274 268 265 267 271 274 272 271 271 272 273 273 274 273 271 276 283 278 282
254 219 253 253 267 268 270 270 278 285 283 287 268 257 259 265 273 276 278 277 278 284 286 278 268 272 274 274 273 265 265 267 265 265 268 270 272 273 272 274 272 270 270 267 269 270 278 281 282
273 251 268 275 273 286 284 280 284 280 303 280 269 263 257 253 252 250 258 265 274 278 279 277 278 270 268 268 266 265 259 259 266 269 269 272 277 279 277 275 274 267 264 262 262 265 272 277 274
298 298 288 292 296 296 295 304 290 310 288 279 273 268 271 268 259 255 256 261 265 267 267 266 269 271 268 269 264 263 260 263 258 264 269 271 273 273 270 270 267 265 259 253 257 261 269 268 260
303 302 303 308 329 298 296 298 281 313 307 297 298 295 282 272 264 257 256 257 262 266 271 274 271 268 267 266 262 265 264 260 261 256 260 263 269 268 266 268 269 263 256 257 257 263 263 259 252
300 296 294 255 313 308 308 298 307 313 315 293 300 291 284 270 271 278 275 270 274 282 281 278 274 267 266 267 269 269 268 265 262 260 258 257 262 261 261 264 267 263 261 257 257 261 258 257 257
293 291 291 277 317 310 311 303 317 322 305 307 309 291 282 268 269 269 271 275 279 281 281 280 277 274 266 264 264 265 263 274 240 244 264 258 259 256 267 267 262 263 269 260 254 252 251 250 252
280 278 294 305 303 310 307 296 300 303 300 298 301 297 285 278 276 273 273 276 278 282 281 283 283 285 262 264 265 266 268 264 264 266 279 259 257 257 261 260 260 263 269 258 250 250 248 248 249
296 297 300 298 303 300 294 291 298 296 286 288 282 272 271 276 276 278 281 278 277 280 280 279 282 284 263 254 261 267 268 265 267 271 273 270 256 257 259 259 265 275 269 256 244 244 242 247 236
296 296 294 294 301 299 297 294 296 297 288 283 277 276 275 272 275 272 270 274 277 278 278 278 284 279 276 270 261 262 267 268 267 266 269 266 260 258 256 252 258 276 257 253 242 239 236 240 239
292 292 294 300 305 298 301 295 297 300 299 290 283 279 275 276 268 267 266 267 264 266 273 277 283 281 284 291 287 272 268 268 269 265 263 261 258 261 253 262 266 274 246 241 237 238 228 227 237
278 292 299 296 300 294 296 294 300 301 309 304 291 283 274 270 259 255 257 258 257 256 262 271 276 279 288 293 296 290 280 273 269 267 260 257 258 257 257 265 268 268 247 246 231 228 231 237 228
297 302 292 291 300 306 300 296 302 314 310 294 289 268 266 262 262 260 255 254 254 255 257 262 270 277 288 292 296 299 291 272 266 263 262 258 256 256 256 264 267 263 276 213 213 226 223 218 220
302 294 297 296 292 295 300 281 297 318 336 329 301 281 263 262 260 256 254 254 253 253 251 250 261 276 290 295 296 296 294 293 280 263 257 252 248 252 254 255 267 263 253 211 207 216 208 211 218
289 297 305 301 295 271 309 349 290 308 311 302 288 267 249 245 248 253 261 267 269 262 248 235 244 264 283 288 292 295 295 295 298 272 255 247 244 249 252 252 258 260 254 232 206 204 209 213 223
299 329 333 309 337 271 296 315 288 285 283 268 258 254 250 255 260 272 286 286 281 270 258 247 232 283 270 282 286 294 291 292 300 288 260 241 240 247 252 253 257 253 243 219 196 197 208 217 227
339 344 279 276 255 296 302 261 272 268 273 260 253 254 253 259 270 300 316 312 302 293 298 255 265 271 278 273 278 282 290 289 298 296 265 242 235 246 250 252 245 303 277 198 177 201 208 218 228
315 310 300 290 286 278 267 273 273 263 259 251 250 263 270 277 280 320 324 317 316 312 302 306 286 276 275 274 275 281 281 286 284 294 277 237 239 247 246 246 261 287 251 213 179 195 205 217 227
304 299 302 269 269 279 276 283 290 262 245 267 296 283 292 309 325 332 325 323 323 311 299 290 288 281 278 277 277 275 267 276 278 275 264 254 239 239 237 259 269 277 294 195 175 187 208 215 213
322 312 300 296 278 284 299 273 304 306 296 294 281 299 315 324 324 325 322 320 317 310 302 296 287 286 286 280 283 271 257 261 260 266 257 246 226 244 260 280 270 262 272 189 174 187 206 206 194
309 320 304 313 292 288 285 284 296 297 297 284 302 302 309 312 314 322 320 318 309 300 297 291 291 292 286 284 286 268 252 257 262 247 249 252 240 241 263 283 267 268 223 190 168 189 195 190 178
Height
3157 3158 3157 3158 3164 3159 3160 3161 3160 3160 3160 3160 3159 3160 3160 3161 3161 3163 3160 3160 3159 3158 3158 3158 3158 3158 3158 3158 3158 3157 3156 3156 3155 3154 3153 3152 3151 3150 3149 3149 3149 3148 3148 3148 3147 3146 3145 3143 3142
3157 3157 3158 3159 3160 3159 3160 3159 3160 3159 3159 3160 3160 3158 3159 3159 3159 3160 3159 3158 3157 3156 3156 3156 3157 3157 3157 3157 3157 3156 3156 3155 3154 3154 3154 3153 3152 3151 3150 3149 3148 3147 3147 3147 3146 3145 3144 3142 3141
3157 3157 3158 3158 3159 3159 3159 3158 3159 3159 3159 3159 3159 3157 3157 3157 3158 3158 3159 3158 3158 3157 3156 3156 3156 3156 3157 3156 3156 3156 3156 3155 3155 3154 3153 3152 3152 3151 3150 3149 3149 3148 3147 3147 3146 3145 3143 3142 3141
3156 3157 3158 3157 3157 3157 3158 3158 3159 3158 3158 3157 3157 3156 3155 3155 3155 3155 3156 3156 3156 3155 3155 3154 3155 3155 3155 3154 3154 3154 3154 3154 3154 3154 3153 3152 3151 3150 3150 3149 3148 3148 3147 3146 3146 3144 3142 3141 3140
3155 3156 3156 3156 3156 3156 3157 3157 3158 3156 3156 3155 3155 3155 3154 3153 3153 3152 3153 3154 3153 3153 3152 3151 3151 3151 3152 3152 3152 3152 3153 3153 3152 3152 3152 3152 3151 3150 3150 3149 3148 3147 3146 3146 3145 3143 3142 3139 3138
3155 3155 3155 3154 3155 3155 3155 3156 3155 3154 3154 3154 3153 3152 3152 3152 3152 3151 3151 3152 3152 3151 3151 3150 3149 3148 3148 3149 3149 3150 3149 3150 3150 3149 3149 3150 3150 3150 3149 3148 3147 3146 3146 3145 3144 3143 3142 3139 3137
3153 3153 3153 3154 3155 3154 3154 3154 3154 3154 3154 3154 3150 3150 3149 3149 3148 3147 3147 3150 3150 3150 3150 3148 3147 3146 3145 3146 3146 3146 3147 3147 3147 3146 3147 3147 3147 3147 3147 3147 3146 3145 3144 3144 3143 3142 3140 3138 3135
3152 3153 3152 3152 3153 3153 3152 3152 3152 3153 3152 3152 3149 3147 3147 3145 3144 3143 3143 3144 3145 3145 3146 3145 3144 3144 3143 3143 3143 3143 3143 3143 3143 3143 3144 3144 3144 3144 3143 3143 3143 3143 3143 3142 3141 3140 3139 3137 3134
3152 3152 3151 3151 3151 3151 3151 3151 3150 3150 3150 3149 3148 3146 3145 3144 3143 3142 3140 3139 3140 3140 3140 3140 3140 3140 3140 3139 3140 3140 3139 3140 3139 3139 3139 3140 3140 3140 3140 3140 3140 3139 3139 3140 3140 3139 3138 3136 3134
3150 3150 3149 3149 3149 3149 3149 3148 3148 3147 3146 3147 3146 3144 3142 3141 3141 3141 3140 3137 3136 3137 3137 3137 3137 3138 3137 3137 3137 3137 3136 3136 3136 3136 3136 3135 3136 3136 3136 3136 3137 3136 3136 3136 3136 3137 3136 3135 3133
3147 3147 3147 3147 3146 3146 3146 3145 3144 3143 3143 3144 3143 3141 3138 3137 3137 3137 3135 3134 3132 3129 3130 3131 3133 3134 3134 3134 3133 3133 3132 3132 3133 3132 3131 3130 3130 3130 3131 3131 3132 3132 3133 3132 3133 3133 3133 3132 3131
3146 3145 3144 3144 3144 3143 3143 3142 3141 3140 3140 3139 3138 3137 3136 3136 3135 3134 3130 3130 3130 3127 3125 3126 3127 3128 3128 3129 3129 3128 3128 3128 3129 3129 3128 3127 3126 3125 3126 3126 3127 3128 3128 3128 3127 3128 3129 3129 3129
3142 3142 3142 3141 3140 3139 3137 3137 3136 3137 3135 3134 3133 3133 3132 3132 3131 3128 3128 3126 3125 3123 3122 3120 3121 3122 3123 3122 3123 3123 3124 3123 3124 3123 3123 3123 3121 3120 3120 3121 3121 3123 3124 3123 3124 3124 3125 3126 3126
3140 3139 3139 3138 3137 3134 3133 3134 3132 3134 3132 3131 3130 3129 3128 3126 3124 3124 3124 3123 3122 3120 3118 3117 3116 3114 3115 3116 3116 3117 3117 3117 3118 3118 3116 3116 3117 3115 3114 3115 3116 3119 3119 3120 3121 3121 3122 3122 3122
3137 3136 3135 3134 3133 3132 3130 3128 3129 3127 3126 3126 3125 3124 3123 3120 3120 3119 3118 3119 3119 3115 3114 3112 3110 3108 3107 3107 3108 3109 3110 3110 3109 3112 3113 3112 3111 3110 3109 3110 3112 3113 3113 3115 3115 3116 3117 3119 3119
3134 3132 3131 3131 3130 3128 3126 3120 3123 3123 3122 3120 3118 3118 3116 3113 3112 3110 3111 3111 3112 3111 3108 3106 3105 3103 3102 3100 3098 3099 3102 3103 3105 3102 3105 3106 3106 3104 3104 3103 3105 3108 3109 3110 3110 3111 3112 3116 3116
3132 3130 3128 3127 3127 3126 3123 3116 3119 3121 3117 3115 3115 3114 3112 3107 3105 3104 3103 3104 3105 3105 3103 3099 3097 3097 3096 3094 3092 3092 3093 3095 3097 3097 3099 3099 3099 3098 3097 3099 3102 3103 3104 3105 3105 3108 3109 3110 3112
3129 3127 3124 3122 3124 3121 3116 3110 3113 3114 3112 3110 3110 3110 3108 3101 3097 3095 3095 3098 3099 3098 3096 3094 3089 3086 3086 3087 3086 3085 3086 3087 3089 3090 3092 3093 3093 3092 3093 3094 3096 3097 3098 3100 3100 3102 3104 3105 3106
3125 3122 3119 3118 3119 3113 3108 3102 3103 3106 3106 3105 3104 3102 3097 3092 3088 3085 3086 3088 3090 3089 3088 3087 3085 3079 3077 3079 3079 3078 3077 3078 3080 3083 3085 3086 3087 3085 3087 3089 3090 3091 3094 3096 3096 3097 3098 3100 3101
3122 3117 3112 3110 3110 3108 3101 3093 3096 3098 3098 3097 3094 3093 3086 3081 3079 3078 3077 3078 3079 3080 3078 3076 3076 3075 3071 3069 3072 3073 3070 3069 3069 3073 3077 3078 3079 3079 3081 3083 3083 3085 3085 3087 3087 3091 3092 3097 3099
3117 3114 3109 3107 3101 3101 3096 3086 3088 3091 3091 3086 3083 3081 3079 3075 3072 3070 3069 3069 3069 3069 3069 3068 3067 3066 3065 3063 3061 3064 3063 3062 3061 3061 3066 3068 3070 3072 3074 3076 3076 3078 3079 3077 3077 3085 3089 3092 3095
3111 3110 3106 3102 3099 3095 3094 3077 3084 3081 3082 3078 3074 3072 3072 3070 3067 3065 3062 3061 3059 3059 3058 3059 3060 3059 3057 3057 3055 3054 3055 3055 3053 3052 3054 3057 3061 3063 3066 3068 3069 3070 3068 3068 3071 3079 3083 3086 3091
3109 3105 3102 3098 3094 3090 3087 3086 3075 3077 3075 3072 3069 3068 3065 3064 3061 3057 3055 3052 3050 3049 3051 3051 3052 3052 3050 3050 3049 3049 3047 3046 3046 3044 3046 3048 3053 3055 3058 3060 3062 3062 3061 3064 3065 3074 3079 3082 3085
3103 3100 3098 3093 3090 3085 3084 3084 3073 3073 3071 3068 3066 3062 3058 3056 3053 3050 3049 3048 3047 3046 3043 3043 3043 3044 3045 3045 3044 3042 3041 3039 3038 3036 3037 3038 3043 3046 3051 3053 3055 3056 3056 3058 3060 3070 3075 3079 3081
3101 3097 3095 3088 3086 3083 3081 3078 3075 3070 3066 3063 3058 3056 3054 3051 3049 3047 3047 3044 3043 3042 3040 3034 3033 3034 3038 3038 3039 3037 3034 3032 3032 3030 3030 3032 3035 3039 3044 3046 3047 3050 3050 3051 3054 3064 3071 3075 3078
3099 3101 3103 3094 3086 3079 3080 3071 3066 3063 3061 3056 3053 3051 3050 3047 3044 3044 3043 3040 3037 3034 3030 3028 3029 3031 3030 3032 3033 3031 3028 3026 3027 3025 3024 3027 3030 3033 3036 3039 3037 3038 3044 3033 3047 3062 3067 3071 3075
3097 3098 3097 3091 3082 3077 3072 3067 3062 3059 3057 3054 3052 3050 3047 3046 3044 3042 3040 3036 3033 3030 3028 3026 3026 3023 3023 3024 3025 3024 3022 3020 3021 3021 3020 3023 3025 3028 3032 3034 3035 3034 3026 3037 3044 3057 3064 3069 3072
3097 3094 3089 3088 3080 3073 3065 3062 3059 3058 3056 3053 3052 3047 3043 3040 3038 3038 3035 3031 3029 3026 3023 3021 3020 3019 3016 3014 3015 3016 3015 3015 3017 3017 3018 3018 3020 3025 3027 3029 3031 3031 3030 3032 3040 3053 3061 3065 3067
3087 3086 3086 3083 3078 3071 3066 3059 3056 3055 3052 3049 3044 3042 3039 3037 3036 3034 3030 3027 3024 3021 3019 3016 3013 3013 3009 3007 3007 3007 3008 3009 3012 3013 3014 3015 3017 3020 3022 3023 3023 3026 3027 3030 3038 3050 3057 3061 3064
3086 3086 3084 3082 3076 3072 3068 3053 3054 3050 3048 3045 3042 3039 3037 3035 3033 3030 3025 3021 3020 3015 3013 3011 3008 3004 3001 3000 2999 3001 3002 3003 3007 3008 3011 3013 3015 3018 3018 3017 3015 3015 3019 3026 3035 3047 3053 3058 3061